Charlevoix, MI

3:38 AM EDT on October 19, 2017 (GMT -0400)
Charlevoix Municipal

Weather History for KCVX - September, 2013

Change the Weather History Date:

Saturday, September 14, 2013

  Actual Average Record
Temperature  
Mean Temperature 54 °F -  
Max Temperature 65 °F 76 °F 82 °F (2004)
Min Temperature 42 °F 59 °F 41 °F (2014)
Degree Days  
Heating Degree Days 12    
Growing Degree Days 4 (Base 50)    
Moisture  
Dew Point 48 °F    
Average Humidity 80    
Maximum Humidity 99    
Minimum Humidity 64    
Precipitation  
Precipitation 0.00 in - - ()
Sea Level Pressure  
Sea Level Pressure 30.12 in    
Wind  
Wind Speed 5 mph (SSW)    
Max Wind Speed 17 mph    
Max Gust Speed 23 mph    
Visibility 10 miles    
Events      
Averages and records for this station are not official NWS values.
T = Trace of Precipitation, MM = Missing Value Source: NWS Daily Summary

Daily Weather History Graph

Daily Weather History Graph

Search for Another Location

Airport or City:

Trip Planner

Search our weather history database for the weather conditions in past years. The results will help you decide how hot, cold, wet, or windy it might be!

Date:

Astronomy

Sep. 14, 2013 Rise Set
Actual Time 7:18 AM EDT 7:53 PM EDT
Civil Twilight 6:48 AM EDT 8:23 PM EDT
Nautical Twilight 6:13 AM EDT 8:58 PM EDT
Astronomical Twilight 5:37 AM EDT 9:34 PM EDT
Moon 4:44 PM EDT (9/14) 1:38 AM EDT (9/14)
Length of Visible Light 13h 34m
Length of Day
12h 34m
Waxing Gibbous, 72% of the Moon is Illuminated
Sep 14
Waxing Gibbous
Sep 19
Full
Sep 26
Last Quarter
Oct 4
New
Oct 11
First Quarter

Hourly Weather History & Observations

Time (EDT) Temp. Windchill Dew Point Humidity Pressure Visibility Wind Dir Wind Speed Gust Speed Precip Events Conditions
12:15 AM 43.9 °F - 42.3 °F 94% 30.17 in 10.0 mi Calm Calm - N/A   Clear
12:34 AM 43.7 °F - 42.3 °F 95% 30.17 in 10.0 mi Calm Calm - N/A   Clear
12:55 AM 43.0 °F - 41.5 °F 95% 30.17 in 10.0 mi Calm Calm - N/A   Clear
1:15 AM 43.5 °F 41.9 °F 42.4 °F 96% 30.16 in 10.0 mi SSE 3.5 mph - N/A   Clear
1:34 AM 44.1 °F 42.5 °F 42.8 °F 95% 30.16 in 10.0 mi SE 3.5 mph - N/A   Clear
1:55 AM 43.9 °F 42.3 °F 42.6 °F 95% 30.16 in 10.0 mi SSE 3.5 mph - N/A   Clear
2:15 AM 44.1 °F 42.5 °F 42.8 °F 95% 30.16 in 10.0 mi SSE 3.5 mph - N/A   Clear
2:34 AM 43.7 °F 42.1 °F 42.4 °F 95% 30.17 in 10.0 mi SSE 3.5 mph - N/A   Clear
2:55 AM 43.3 °F 40.7 °F 42.3 °F 96% 30.16 in 10.0 mi SSE 4.6 mph - N/A   Clear
3:14 AM 44.1 °F 42.5 °F 42.3 °F 93% 30.17 in 10.0 mi SSE 3.5 mph - N/A   Clear
3:35 AM 44.1 °F 42.5 °F 42.1 °F 93% 30.17 in 10.0 mi ESE 3.5 mph - N/A   Clear
3:55 AM 43.5 °F - 41.9 °F 94% 30.16 in 10.0 mi Calm Calm - N/A   Clear
4:14 AM 43.3 °F 40.7 °F 41.9 °F 95% 30.17 in 10.0 mi SE 4.6 mph - N/A   Clear
4:35 AM 42.4 °F 40.7 °F 41.4 °F 96% 30.17 in 10.0 mi SE 3.5 mph - N/A   Clear
4:54 AM 42.4 °F 40.7 °F 41.4 °F 96% 30.16 in 10.0 mi SE 3.5 mph - N/A   Clear
5:15 AM 42.8 °F 41.1 °F 41.4 °F 95% 30.16 in 10.0 mi ESE 3.5 mph - N/A   Clear
5:34 AM 42.4 °F 40.7 °F 41.4 °F 96% 30.16 in 10.0 mi ESE 3.5 mph - N/A   Clear
5:55 AM 42.1 °F 38.4 °F 41.4 °F 97% 30.16 in 10.0 mi SE 5.8 mph - N/A   Clear
6:15 AM 42.1 °F 38.4 °F 41.5 °F 98% 30.16 in 10.0 mi SE 5.8 mph - N/A   Clear
6:34 AM 42.6 °F 39.9 °F 41.4 °F 95% 30.16 in 10.0 mi SSE 4.6 mph - N/A   Clear
6:55 AM 43.0 °F 41.3 °F 41.5 °F 95% 30.16 in 10.0 mi ESE 3.5 mph - N/A   Clear
7:15 AM 42.8 °F 41.1 °F 41.9 °F 97% 30.16 in 10.0 mi SE 3.5 mph - N/A   Clear
7:34 AM 43.2 °F 40.5 °F 42.4 °F 97% 30.16 in 10.0 mi SSE 4.6 mph - N/A   Clear
7:55 AM 45.1 °F 42.8 °F 44.8 °F 99% 30.17 in 10.0 mi South 4.6 mph - N/A   Clear
8:15 AM 47.8 °F - 46.9 °F 97% 30.16 in 10.0 mi South 4.6 mph - N/A   Clear
8:34 AM 50.0 °F - 48.0 °F 93% 30.17 in 10.0 mi South 5.8 mph - N/A   Clear
8:55 AM 51.3 °F - 48.6 °F 90% 30.17 in 10.0 mi South 5.8 mph - N/A   Clear
9:15 AM 52.3 °F - 49.3 °F 89% 30.16 in 10.0 mi South 8.1 mph - N/A   Scattered Clouds
9:34 AM 54.1 °F - 49.6 °F 85% 30.17 in 10.0 mi SSW 10.4 mph - N/A   Clear
9:55 AM 55.6 °F - 50.2 °F 82% 30.17 in 10.0 mi South 8.1 mph - N/A   Scattered Clouds
10:15 AM 57.2 °F - 50.7 °F 79% 30.17 in 10.0 mi SW 11.5 mph - N/A   Clear
10:34 AM 58.6 °F - 49.8 °F 72% 30.17 in 10.0 mi SW 8.1 mph - N/A   Clear
10:55 AM 58.8 °F - 48.9 °F 70% 30.16 in 10.0 mi SSW 10.4 mph - N/A   Scattered Clouds
11:14 AM 59.5 °F - 49.3 °F 69% 30.16 in 10.0 mi SSW 11.5 mph 17.3 mph N/A   Mostly Cloudy
11:34 AM 60.4 °F - 50.5 °F 70% 30.15 in 10.0 mi SW 8.1 mph - N/A   Scattered Clouds
11:55 AM 61.9 °F - 51.1 °F 68% 30.14 in 10.0 mi WSW 10.4 mph - N/A   Scattered Clouds
12:14 PM 62.4 °F - 51.1 °F 66% 30.14 in 10.0 mi SW 10.4 mph - N/A   Mostly Cloudy
12:35 PM 62.6 °F - 51.3 °F 66% 30.14 in 10.0 mi West 12.7 mph 17.3 mph N/A   Scattered Clouds
12:55 PM 62.1 °F - 51.6 °F 69% 30.13 in 10.0 mi WSW 12.7 mph 17.3 mph N/A   Scattered Clouds
1:14 PM 60.3 °F - 50.5 °F 70% 30.13 in 10.0 mi WSW 13.8 mph 19.6 mph N/A   Scattered Clouds
1:35 PM 61.5 °F - 51.4 °F 69% 30.12 in 10.0 mi WSW 11.5 mph 16.1 mph N/A   Scattered Clouds
1:55 PM 63.0 °F - 52.5 °F 69% 30.11 in 10.0 mi WSW 12.7 mph 18.4 mph N/A   Mostly Cloudy
2:14 PM 61.7 °F - 52.5 °F 72% 30.10 in 10.0 mi West 13.8 mph 19.6 mph N/A   Mostly Cloudy
2:35 PM 64.0 °F - 53.2 °F 68% 30.09 in 10.0 mi WSW 11.5 mph 19.6 mph N/A   Mostly Cloudy
2:55 PM 63.9 °F - 52.0 °F 65% 30.08 in 10.0 mi WSW 17.3 mph 21.9 mph N/A   Mostly Cloudy
3:14 PM 64.4 °F - 51.8 °F 64% 30.09 in 10.0 mi WSW 13.8 mph 23.0 mph N/A   Scattered Clouds
3:35 PM 64.0 °F - 51.4 °F 64% 30.07 in 10.0 mi WSW 15.0 mph 19.6 mph N/A   Scattered Clouds
3:55 PM 64.6 °F - 53.1 °F 66% 30.07 in 10.0 mi West 15.0 mph 21.9 mph N/A   Scattered Clouds
4:14 PM 64.8 °F - 52.2 °F 64% 30.07 in 10.0 mi West 17.3 mph - N/A   Scattered Clouds
4:35 PM 65.1 °F - 53.1 °F 65% 30.07 in 10.0 mi WSW 15.0 mph 19.6 mph N/A   Scattered Clouds
4:55 PM 64.9 °F - 53.1 °F 65% 30.07 in 10.0 mi West 12.7 mph 19.6 mph N/A   Clear
5:14 PM 64.6 °F - 52.9 °F 66% 30.07 in 10.0 mi West 15.0 mph 19.6 mph N/A   Scattered Clouds
5:35 PM 63.9 °F - 52.7 °F 67% 30.07 in 10.0 mi WSW 11.5 mph - N/A   Clear
5:54 PM 62.6 °F - 51.3 °F 66% 30.06 in 10.0 mi WSW 9.2 mph - N/A   Clear
6:15 PM 61.7 °F - 51.3 °F 69% 30.06 in 10.0 mi SW 8.1 mph - N/A   Clear
6:35 PM 62.1 °F - 51.1 °F 67% 30.06 in 10.0 mi SW 5.8 mph - N/A   Clear
6:54 PM 61.0 °F - 51.8 °F 72% 30.06 in 10.0 mi WSW 4.6 mph - N/A   Clear
7:15 PM 60.4 °F - 51.8 °F 73% 30.05 in 10.0 mi SSW 3.5 mph - N/A   Clear
7:35 PM 59.4 °F - 50.7 °F 73% 30.05 in 10.0 mi SSW 4.6 mph - N/A   Clear
7:54 PM 59.0 °F - 48.2 °F 67% 30.05 in 10.0 mi SSW 5.8 mph - N/A   Clear
8:15 PM 58.3 °F - 46.9 °F 66% 30.04 in 10.0 mi South 4.6 mph - N/A   Clear
8:35 PM 57.4 °F - 47.1 °F 69% 30.05 in 10.0 mi SSW 4.6 mph - N/A   Clear
8:54 PM 56.7 °F - 46.9 °F 70% 30.05 in 10.0 mi South 3.5 mph - N/A   Clear
9:15 PM 57.0 °F - 47.3 °F 70% 30.05 in 10.0 mi SSW 4.6 mph - N/A   Clear
9:34 PM 57.2 °F - 48.2 °F 72% 30.05 in 10.0 mi SW 3.5 mph - N/A   Clear
9:55 PM 57.4 °F - 49.1 °F 74% 30.04 in 10.0 mi SW 6.9 mph - N/A   Clear
10:15 PM 58.1 °F - 49.5 °F 73% 30.05 in 10.0 mi SW 6.9 mph - N/A   Clear
10:34 PM 58.5 °F - 49.8 °F 73% 30.03 in 10.0 mi SSW 6.9 mph - N/A   Clear
10:55 PM 58.6 °F - 50.0 °F 73% 30.03 in 10.0 mi SSW 5.8 mph - N/A   Clear
11:15 PM 59.0 °F - 50.7 °F 74% 30.03 in 10.0 mi SSW 8.1 mph - N/A   Clear
11:34 PM 59.2 °F - 51.4 °F 75% 30.03 in 10.0 mi SSW 9.2 mph - N/A   Clear
11:55 PM 59.4 °F - 52.0 °F 77% 30.03 in 10.0 mi SW 11.5 mph 16.1 mph N/A   Clear